[[{"header":{"parameterUnit":"m.s-1","parameterCategory":2,"la1":30.2991,"la2":30.254,"lo1":-89.0895,"lo2":-89.0444,"dy":0.0017,"dx":0.0017,"nx":28,"ny":28,"refTime":"2024-03-29T03:00:00:Z","depth":"0","parameterNumber":2,"parameterNumberName":"U-component_of_CURRENTS"},"data":[0,0,0,0,0,0,0,0,0,0,0,0,0,0,0,0,0,0,0,0,0,0,0,0,0,0,0,0,0,0,0,0,0,0,0,0,0,0,0,0,0,0,0,0,0,0,0,0,0,0,0,0,0,0,0,0,0,0,-0.1104,-0.1104,0,-0.111,-0.111,-0.111,-0.1037,-0.1035,-0.1033,-0.1032,-0.101,-0.1012,-0.1013,0,0,0,0,0,0,0,0,0,0,0,0,0,-0.1069,-0.107,-0.1104,-0.1104,-0.1104,-0.111,-0.111,-0.111,-0.1037,-0.1035,-0.1033,-0.1031,-0.101,-0.1011,-0.1013,0,0,0,0,0,0,0,0,0,0,0,0,0,-0.1079,-0.107,-0.1104,-0.107,-0.1068,-0.111,-0.111,-0.111,-0.1038,-0.1035,-0.1032,-0.103,-0.101,-0.1011,-0.1013,-0.1078,0,0,-0.1018,-0.1019,0,0,0,0,0,0,0,0,-0.1078,-0.108,-0.1075,-0.1073,-0.107,-0.1072,-0.109,-0.1098,-0.1039,-0.1047,-0.1032,-0.1029,-0.1032,-0.1032,-0.1036,-0.1077,-0.1076,-0.1018,-0.1019,-0.102,-0.102,0,0,0,0,0,0,0,-0.1077,-0.1079,-0.1104,-0.1076,-0.1072,-0.1069,-0.1067,-0.1091,-0.1052,-0.1046,-0.1041,-0.1046,-0.1029,-0.1035,-0.1035,-0.1075,-0.1018,-0.102,-0.1021,-0.1021,-0.1242,-0.1246,0,0,0,0,0,0,-0.1082,-0.1079,-0.1104,-0.1105,-0.107,-0.1072,-0.1069,-0.1072,-0.1053,-0.1048,-0.1048,-0.1043,-0.1033,-0.1033,-0.1034,-0.1168,-0.102,-0.1022,-0.1022,-0.1237,-0.1243,-0.1248,0,0,0,0,0,0,-0.1081,-0.1084,-0.1104,-0.1093,-0.1096,-0.1075,-0.1079,-0.1074,-0.108,-0.1055,-0.1049,-0.106,-0.1031,-0.1032,-0.108,-0.1164,-0.1022,-0.1024,-0.1231,-0.1239,-0.1245,-0.1398,0,0,0,0,0,0,-0.108,-0.1084,-0.1096,-0.1094,-0.1096,-0.1157,-0.1082,-0.1076,-0.1088,-0.108,-0.1064,-0.1058,-0.1029,-0.1078,-0.1082,-0.1163,-0.1025,-0.1225,-0.1234,-0.1243,-0.1387,-0.1409,-0.1429,0,0,0,0,0,-0.1079,-0.1117,-0.1097,-0.11,-0.1111,-0.1161,-0.1164,-0.1137,-0.1091,-0.1125,-0.1109,-0.1059,-0.1139,-0.1084,-0.1087,-0.117,-0.1221,-0.1232,-0.1242,-0.1377,-0.1405,-0.1428,0,0,0,0,0,0,-0.1119,-0.1113,-0.1091,-0.1126,-0.1151,-0.1149,-0.1175,-0.1155,-0.1168,-0.1156,-0.111,-0.1108,-0.1183,-0.1168,-0.1107,-0.1267,-0.1178,-0.119,-0.1279,-0.1305,-0.1326,-0.1353,-0.1027,0,0,0,0,0,-0.1132,-0.1147,-0.1155,-0.1186,-0.1199,-0.1188,-0.1203,-0.1195,-0.1202,-0.1202,-0.1194,-0.1201,-0.1237,-0.1257,-0.128,-0.1366,-0.1326,-0.1429,-0.1451,-0.1468,-0.1498,-0.1506,-0.1529,-0.1284,-0.1284,-0.1283,0,0,-0.1153,-0.1155,-0.1161,-0.1194,-0.12,-0.1272,-0.1191,-0.1235,-0.1304,-0.1203,-0.1289,-0.1269,-0.1275,-0.1367,-0.1402,-0.136,-0.1518,-0.1482,-0.1497,-0.1517,-0.152,-0.1543,-0.1564,-0.1291,-0.129,-0.1289,0,0,-0.1226,-0.1209,-0.1255,-0.129,-0.1323,-0.1336,-0.1356,-0.1376,-0.1392,-0.1467,-0.1422,-0.1461,-0.1502,-0.1538,-0.1556,-0.1718,-0.1622,-0.1722,-0.1858,-0.1866,-0.1884,-0.1901,-0.1866,-0.1878,-0.174,-0.1741,-0.1741,0,-0.1259,-0.1311,-0.1284,-0.1357,-0.1406,-0.1376,-0.1471,-0.1505,-0.1543,-0.1576,-0.1518,-0.1598,-0.1598,-0.1719,-0.1778,-0.1767,-0.1725,-0.175,-0.1889,-0.1904,-0.1918,-0.1879,-0.189,-0.1749,-0.1748,-0.1747,-0.1747,0,-0.1374,-0.1425,-0.1465,-0.1541,-0.1599,-0.1673,-0.1721,-0.1777,-0.1774,-0.1791,-0.1878,-0.1867,-0.1904,-0.193,-0.1904,-0.203,-0.1951,-0.19,-0.1811,-0.1951,-0.1902,-0.1911,-0.1762,-0.1759,-0.1756,-0.1754,0,0,-0.1438,-0.1526,-0.1544,-0.1604,-0.1702,-0.1763,-0.1895,-0.2001,-0.2055,-0.2091,-0.2161,-0.2246,-0.2186,-0.2207,-0.2174,-0.2204,-0.2267,-0.2107,-0.2103,-0.2051,-0.2243,-0.2182,-0.2184,-0.2215,-0.2218,-0.2221,-0.2161,0,-0.1545,-0.1692,-0.1724,-0.1892,-0.1976,-0.2013,-0.2129,-0.2217,-0.2243,-0.2299,-0.231,-0.234,-0.2308,-0.2289,-0.2336,-0.226,-0.23,-0.2286,-0.2136,-0.2132,-0.2042,-0.2197,-0.211,-0.205,-0.2168,-0.217,-0.2171,0,-0.1654,-0.1744,-0.1906,-0.2046,-0.2086,-0.2181,-0.2325,-0.2418,-0.2495,-0.25,-0.2538,-0.2492,-0.2556,-0.2473,-0.2474,-0.2449,-0.2392,-0.2335,-0.2329,-0.2231,-0.2091,-0.1936,-0.206,-0.202,-0.2183,-0.2182,-0.2181,0,-0.17,-0.1872,-0.1997,-0.2052,-0.2209,-0.2289,-0.2368,-0.2471,-0.2522,-0.2588,-0.2579,-0.264,-0.2596,-0.2587,-0.2489,-0.2467,-0.2442,-0.2381,-0.2289,-0.2279,-0.2163,-0.2139,-0.2216,-0.2422,-0.2422,-0.2422,-0.2423,0,-0.1796,-0.19,-0.2015,-0.2088,-0.2234,-0.2325,-0.2442,-0.2519,-0.2581,-0.2601,-0.2649,-0.2635,-0.2615,-0.258,-0.2528,-0.2434,-0.2473,-0.2355,-0.229,-0.2213,-0.2197,-0.2117,-0.2127,-0.242,-0.2421,-0.2421,-0.2421,0,-0.182,-0.1897,-0.2037,-0.2199,-0.2246,-0.2339,-0.245,-0.2494,-0.2566,-0.258,-0.2583,-0.2612,-0.2557,-0.2542,-0.2477,-0.2435,-0.2331,-0.2337,-0.2233,-0.2162,-0.2041,-0.2063,-0.209,-0.2029,-0.2231,-0.223,-0.2229,0,-0.1849,-0.1914,-0.2074,-0.2123,-0.2189,-0.2309,-0.2356,-0.2467,-0.2473,-0.2532,-0.2503,-0.2499,-0.2457,-0.239,-0.2329,-0.2264,-0.2255,-0.2143,-0.2133,-0.2075,-0.2051,-0.2064,-0.2012,-0.2016,-0.2013,-0.2011,-0.2009,0,-0.1884,-0.1911,-0.1998,-0.2089,-0.2152,-0.2221,-0.2279,-0.2291,-0.2359,-0.2374,-0.2343,-0.2334,-0.2298,-0.2202,-0.2159,-0.2106,-0.2098,-0.2092,-0.207,-0.1959,-0.1942,-0.1834,-0.1985,-0.1989,-0.1991,-0.1992,-0.1993,-0.1994,-0.1856,-0.1892,-0.1948,-0.2027,-0.208,-0.207,-0.2061,-0.2094,-0.2092,-0.2063,-0.2133,-0.2105,-0.2093,-0.2024,-0.1972,-0.187,-0.193,-0.181,-0.1855,-0.1882,-0.1821,-0.1928,-0.184,-0.1841,-0.1842,-0.1843,-0.1844,0,-0.1783,-0.1806,-0.1874,-0.1915,-0.1889,-0.1957,-0.1945,-0.1887,-0.1816,-0.1868,-0.185,-0.1875,-0.1805,-0.1811,-0.1746,-0.1663,-0.1617,-0.1623,-0.1628,-0.1592,-0.1701,-0.1686,-0.1516,-0.1516,-0.1516,-0.1516,-0.1516,-0.1516,-0.1735,-0.1733,-0.176,-0.1695,-0.1699,-0.1589,-0.1541,-0.1496,-0.1503,-0.1489,-0.1544,-0.1631,-0.1657,-0.1787,-0.1668,-0.1577,-0.1526,-0.1488,-0.1504,-0.1585,-0.1605,-0.1625,-0.1614,-0.1432,-0.1432,-0.1318,-0.1318,-0.1317]},{"header":{"parameterUnit":"m.s-1","parameterCategory":2,"la1":30.2991,"la2":30.254,"lo1":-89.0895,"lo2":-89.0444,"dy":0.0017,"dx":0.0017,"nx":28,"ny":28,"refTime":"2024-03-29T03:00:00:Z","depth":"0","parameterNumber":3,"parameterNumberName":"V-component_of_CURRENTS"},"data":[0,0,0,0,0,0,0,0,0,0,0,0,0,0,0,0,0,0,0,0,0,0,0,0,0,0,0,0,0,0,0,0,0,0,0,0,0,0,0,0,0,0,0,0,0,0,0,0,0,0,0,0,0,0,0,0,0,0,0.0162,0.0164,0,0.0331,0.0333,0.0335,0.0431,0.0431,0.0431,0.0431,0.073,0.0738,0.0745,0,0,0,0,0,0,0,0,0,0,0,0,0,0.0048,0.0049,0.0162,0.0164,0.0166,0.033,0.0333,0.0336,0.0431,0.0431,0.0431,0.0431,0.0727,0.0737,0.0746,0,0,0,0,0,0,0,0,0,0,0,0,0,0.0147,0.0049,0.0162,0.0231,0.0239,0.033,0.0333,0.0336,0.0431,0.0431,0.0431,0.0431,0.0724,0.0736,0.0748,0.0818,0,0,0.0784,0.0789,0,0,0,0,0,0,0,0,0.0141,0.0152,0.0219,0.0227,0.0235,0.0358,0.0402,0.0503,0.0431,0.0361,0.0431,0.0432,0.0616,0.0636,0.067,0.0832,0.0845,0.0785,0.0792,0.0797,0.08,0,0,0,0,0,0,0,0.0134,0.0146,0.0232,0.0221,0.0231,0.0297,0.031,0.0422,0.049,0.0367,0.0374,0.0388,0.0621,0.0658,0.0678,0.0849,0.0784,0.0795,0.0802,0.0807,0.1069,0.1069,0,0,0,0,0,0,0.0101,0.0138,0.0226,0.0237,0.0185,0.0298,0.0313,0.0321,0.0487,0.051,0.0388,0.0392,0.0638,0.0664,0.0689,0.0782,0.0797,0.0808,0.0815,0.107,0.1069,0.1069,0,0,0,0,0,0,0.0098,0.0107,0.022,0.019,0.0208,0.0298,0.0307,0.0324,0.036,0.05,0.0527,0.0406,0.0639,0.0673,0.0781,0.0794,0.0813,0.0824,0.107,0.1069,0.1069,0.0968,0,0,0,0,0,0,0.0094,0.0105,0.0107,0.0187,0.0208,0.0267,0.0307,0.0327,0.0367,0.0374,0.0525,0.0553,0.0642,0.0763,0.0793,0.0811,0.0833,0.107,0.107,0.1069,0.0972,0.0965,0.0959,0,0,0,0,0,0.0089,0.0078,0.0105,0.0117,0.0205,0.0266,0.0284,0.0351,0.0367,0.0384,0.0479,0.0548,0.0782,0.0773,0.0808,0.083,0.107,0.107,0.1069,0.0975,0.0966,0.0959,0,0,0,0,0,0,0.0034,0.009,0.012,0.013,0.0192,0.0281,0.03,0.0343,0.043,0.0438,0.0562,0.0597,0.0693,0.0771,0.0757,0.09,0.0932,0.0939,0.0848,0.0841,0.0835,0.082,0.0843,0,0,0,0,0,0.002,0.0026,0.0099,0.0111,0.0133,0.0215,0.0249,0.0295,0.0377,0.0413,0.0517,0.0623,0.0721,0.0785,0.0884,0.0975,0.0996,0.1006,0.0999,0.0993,0.1003,0.1048,0.1046,0.1068,0.1068,0.1068,0,0,0.0004,0.0035,0.0042,0.01,0.0151,0.019,0.0236,0.0279,0.0323,0.0437,0.0526,0.061,0.0737,0.083,0.088,0.09,0.0981,0.0993,0.0987,0.1,0.1048,0.1046,0.1044,0.1068,0.1068,0.1068,0,0,-0.0025,-0.0001,-0.0,0.0047,0.0112,0.0164,0.0168,0.0257,0.0305,0.0397,0.0478,0.0563,0.0724,0.081,0.0876,0.0895,0.094,0.092,0.0892,0.0935,0.0933,0.0932,0.0877,0.0872,0.0923,0.0922,0.0922,0,-0.0043,-0.0032,0.0013,0.0036,0.0067,0.0143,0.0163,0.023,0.0346,0.0389,0.0412,0.0618,0.0717,0.0833,0.0833,0.0884,0.0878,0.091,0.0924,0.0925,0.0926,0.087,0.0866,0.0918,0.0918,0.0919,0.0919,0,-0.0062,-0.0042,-0.0041,0.0011,0.0051,0.0076,0.0163,0.0213,0.027,0.0347,0.0458,0.0581,0.07,0.0738,0.0802,0.0862,0.084,0.0901,0.0938,0.0917,0.0859,0.0857,0.0911,0.0912,0.0914,0.0915,0,0,-0.0123,-0.0068,-0.0062,-0.0049,0.0035,0.0057,0.0126,0.0208,0.0247,0.0362,0.0419,0.0578,0.063,0.0705,0.0786,0.0832,0.0804,0.086,0.0865,0.079,0.0817,0.0853,0.0853,0.0866,0.0867,0.0868,0.0744,0,-0.0146,-0.0136,-0.009,-0.0067,-0.0057,0.0026,0.0084,0.0172,0.0252,0.0328,0.0454,0.054,0.0624,0.0658,0.0724,0.0804,0.0807,0.0827,0.0863,0.0862,0.0889,0.0858,0.0914,0.0817,0.0742,0.0742,0.0741,0,-0.0169,-0.0166,-0.0159,-0.0118,-0.0106,-0.0074,-0.0001,0.0061,0.0195,0.0258,0.0367,0.046,0.056,0.0615,0.0727,0.0732,0.0757,0.0802,0.08,0.0882,0.0899,0.0846,0.0817,0.0972,0.0738,0.0739,0.0739,0,-0.0241,-0.0212,-0.0222,-0.0202,-0.0135,-0.0118,-0.0081,0.0039,0.0078,0.0197,0.0218,0.038,0.0413,0.0529,0.0633,0.067,0.0713,0.0779,0.0816,0.0813,0.0898,0.0905,0.1028,0.0819,0.082,0.082,0.082,0,-0.0278,-0.0283,-0.0263,-0.026,-0.0274,-0.02,-0.018,-0.011,-0.0022,0.0002,0.0159,0.0187,0.0393,0.0459,0.0576,0.0678,0.0663,0.0798,0.0808,0.0856,0.086,0.1033,0.111,0.0815,0.0816,0.0817,0.0818,0,-0.0327,-0.0309,-0.0331,-0.0305,-0.0301,-0.0315,-0.0274,-0.0259,-0.0171,-0.015,-0.0132,0.0009,0.0116,0.0291,0.0437,0.0567,0.0781,0.0706,0.0701,0.0717,0.0964,0.1031,0.1142,0.124,0.0747,0.0747,0.0748,0,-0.0344,-0.0357,-0.0385,-0.0416,-0.0407,-0.0414,-0.0413,-0.0337,-0.0335,-0.0263,-0.028,-0.0177,-0.0072,0.0153,0.0412,0.0607,0.0748,0.0735,0.0868,0.0981,0.1064,0.1105,0.1184,0.088,0.0882,0.0883,0.0884,0,-0.0377,-0.0392,-0.0421,-0.0489,-0.0523,-0.056,-0.0569,-0.0588,-0.0518,-0.0493,-0.0457,-0.0367,-0.0115,0.0191,0.046,0.0593,0.0898,0.0767,0.0921,0.1216,0.1235,0.1332,0.0878,0.0895,0.0894,0.0893,0.0893,0.0892,-0.0402,-0.045,-0.0493,-0.0562,-0.0623,-0.0694,-0.072,-0.0729,-0.0731,-0.0667,-0.0593,-0.0413,0.004,0.0488,0.064,0.1012,0.0985,0.1144,0.1208,0.123,0.1391,0.0921,0.0956,0.0955,0.0955,0.0954,0.0953,0,-0.0415,-0.0476,-0.0553,-0.0647,-0.0742,-0.0744,-0.0809,-0.0813,-0.0828,-0.0709,-0.0613,-0.0129,0.0315,0.0737,0.1265,0.1456,0.1523,0.1533,0.1632,0.169,0.1302,0.1383,0.1472,0.1472,0.1472,0.1472,0.1471,0.1471,-0.0417,-0.0498,-0.0554,-0.0719,-0.0795,-0.0887,-0.0925,-0.0913,-0.0827,-0.0576,-0.0302,-0.0067,0.0533,0.1371,0.1844,0.1873,0.2061,0.2014,0.2106,0.1874,0.1844,0.1815,0.1912,0.2111,0.2112,0.2501,0.2505,0.2508]}],[{"header":{"parameterUnit":"m.s-1","parameterCategory":2,"la1":30.2991,"la2":30.254,"lo1":-89.0895,"lo2":-89.0444,"dy":0.0017,"dx":0.0017,"nx":28,"ny":28,"refTime":"2024-03-29T03:00:00:Z","depth":"2","parameterNumber":2,"parameterNumberName":"U-component_of_CURRENTS"},"data":[0,0,0,0,0,0,0,0,0,0,0,0,0,0,0,0,0,0,0,0,0,0,0,0,0,0,0,0,0,0,0,0,0,0,0,0,0,0,0,0,0,0,0,0,0,0,0,0,0,0,0,0,0,0,0,0,0,0,-0.1933,-0.1931,0,-0.1776,-0.1774,-0.1773,-0.1703,-0.1703,-0.1703,-0.1704,-0.1613,-0.1611,-0.1608,0,0,0,0,0,0,0,0,0,0,0,0,0,-0.2091,-0.2089,-0.1933,-0.1931,-0.1929,-0.1777,-0.1774,-0.1772,-0.1703,-0.1703,-0.1704,-0.1704,-0.1614,-0.1611,-0.1608,0,0,0,0,0,0,0,0,0,0,0,0,0,-0.1986,-0.2088,-0.1933,-0.1877,-0.187,-0.1777,-0.1774,-0.1771,-0.1703,-0.1703,-0.1704,-0.1704,-0.1615,-0.1612,-0.1608,-0.1574,0,0,-0.1595,-0.1594,0,0,0,0,0,0,0,0,-0.1993,-0.1981,-0.1887,-0.1881,-0.1873,-0.176,-0.1797,-0.1709,-0.1703,-0.1765,-0.1704,-0.1704,-0.1669,-0.1661,-0.1628,-0.157,-0.1566,-0.1595,-0.1592,-0.1591,-0.159,0,0,0,0,0,0,0,-0.2,-0.1986,-0.187,-0.1885,-0.1877,-0.1832,-0.1818,-0.1779,-0.1717,-0.176,-0.1755,-0.1739,-0.1666,-0.1632,-0.1625,-0.1564,-0.1595,-0.1591,-0.1589,-0.1587,-0.1651,-0.1655,0,0,0,0,0,0,-0.2025,-0.1994,-0.1875,-0.1865,-0.1936,-0.1829,-0.1814,-0.1795,-0.1716,-0.1704,-0.1739,-0.1736,-0.1638,-0.163,-0.1622,-0.1679,-0.1591,-0.1587,-0.1585,-0.1647,-0.1652,-0.1656,0,0,0,0,0,0,-0.2029,-0.2016,-0.1881,-0.1927,-0.1907,-0.1827,-0.1806,-0.1792,-0.174,-0.1699,-0.1688,-0.17,-0.1638,-0.1628,-0.1591,-0.1671,-0.1585,-0.1582,-0.1642,-0.1648,-0.1654,-0.1728,0,0,0,0,0,0,-0.2034,-0.2018,-0.2001,-0.1929,-0.1905,-0.1819,-0.1805,-0.1789,-0.1731,-0.1726,-0.1662,-0.1655,-0.1638,-0.1597,-0.1587,-0.1664,-0.1578,-0.1637,-0.1645,-0.1652,-0.172,-0.1736,-0.1749,0,0,0,0,0,-0.204,-0.2004,-0.2001,-0.1986,-0.1889,-0.1818,-0.1801,-0.1745,-0.1729,-0.1701,-0.1673,-0.1656,-0.1643,-0.1593,-0.1581,-0.166,-0.1633,-0.1642,-0.1651,-0.1714,-0.1733,-0.1749,0,0,0,0,0,0,-0.2056,-0.1992,-0.1987,-0.1933,-0.1885,-0.1807,-0.1762,-0.1733,-0.1683,-0.1677,-0.1647,-0.1637,-0.1658,-0.1642,-0.159,-0.1715,-0.166,-0.1667,-0.1713,-0.173,-0.1744,-0.1791,-0.1575,0,0,0,0,0,-0.2058,-0.2015,-0.1962,-0.1917,-0.1892,-0.1829,-0.1788,-0.1756,-0.1706,-0.1681,-0.1644,-0.1649,-0.1689,-0.1687,-0.1691,-0.1706,-0.1671,-0.1776,-0.179,-0.1802,-0.1841,-0.1798,-0.1809,-0.1686,-0.1686,-0.1686,0,0,-0.2056,-0.201,-0.1988,-0.1918,-0.187,-0.187,-0.1803,-0.1737,-0.177,-0.1682,-0.1686,-0.1667,-0.1702,-0.1749,-0.1763,-0.1739,-0.1824,-0.1814,-0.1823,-0.1857,-0.1808,-0.1819,-0.1829,-0.1693,-0.1691,-0.169,0,0,-0.2031,-0.1986,-0.1954,-0.1931,-0.1867,-0.1852,-0.1838,-0.1763,-0.1759,-0.1737,-0.1748,-0.1777,-0.175,-0.184,-0.1881,-0.1978,-0.1892,-0.1981,-0.2088,-0.2044,-0.2052,-0.2059,-0.2029,-0.2033,-0.1996,-0.1996,-0.1996,0,-0.2032,-0.2007,-0.1932,-0.1918,-0.1933,-0.1861,-0.1885,-0.1872,-0.1804,-0.1828,-0.1754,-0.1814,-0.1831,-0.1985,-0.2044,-0.2016,-0.1944,-0.2004,-0.2056,-0.2062,-0.2067,-0.2036,-0.2038,-0.2001,-0.2,-0.2,-0.2,0,-0.2007,-0.2009,-0.1983,-0.1982,-0.1982,-0.197,-0.1983,-0.1978,-0.1953,-0.1946,-0.2004,-0.1995,-0.2048,-0.2084,-0.209,-0.2199,-0.2119,-0.2059,-0.1993,-0.2083,-0.2046,-0.2047,-0.2008,-0.2006,-0.2005,-0.2003,0,0,-0.1971,-0.1975,-0.1973,-0.2014,-0.2031,-0.2022,-0.2112,-0.2169,-0.2173,-0.2161,-0.2176,-0.2324,-0.227,-0.2322,-0.2331,-0.2322,-0.2319,-0.2207,-0.2202,-0.2148,-0.2188,-0.2144,-0.214,-0.2202,-0.2203,-0.2204,-0.2143,0,-0.199,-0.2019,-0.2026,-0.2105,-0.2144,-0.2173,-0.2237,-0.2284,-0.226,-0.2227,-0.231,-0.2298,-0.2381,-0.2343,-0.2385,-0.2306,-0.2324,-0.2341,-0.2139,-0.2136,-0.2058,-0.2143,-0.1989,-0.192,-0.2144,-0.2144,-0.2144,0,-0.1978,-0.2018,-0.2103,-0.2191,-0.2202,-0.2245,-0.2325,-0.2366,-0.2377,-0.234,-0.2394,-0.2336,-0.246,-0.2389,-0.244,-0.241,-0.2349,-0.2279,-0.2272,-0.2214,-0.2096,-0.1872,-0.1913,-0.2145,-0.2145,-0.2145,-0.2145,0,-0.2003,-0.2074,-0.2161,-0.2195,-0.2272,-0.233,-0.2376,-0.2403,-0.2393,-0.2387,-0.2316,-0.2407,-0.24,-0.2371,-0.2358,-0.2335,-0.2275,-0.2218,-0.2155,-0.215,-0.1986,-0.1965,-0.2223,-0.2223,-0.2223,-0.2223,-0.2223,0,-0.204,-0.2092,-0.2167,-0.2213,-0.2263,-0.2341,-0.2338,-0.238,-0.2355,-0.2327,-0.2372,-0.2343,-0.2367,-0.2339,-0.2313,-0.2278,-0.2282,-0.221,-0.2143,-0.2012,-0.1995,-0.2164,-0.2158,-0.2221,-0.2221,-0.2222,-0.2222,0,-0.2015,-0.2088,-0.215,-0.2248,-0.2265,-0.2293,-0.2293,-0.2251,-0.2295,-0.2245,-0.2242,-0.2283,-0.2291,-0.2298,-0.2219,-0.2231,-0.2158,-0.2135,-0.2005,-0.1927,-0.2066,-0.2065,-0.2048,-0.2047,-0.2045,-0.2044,-0.2043,0,-0.2003,-0.2042,-0.2112,-0.2106,-0.2136,-0.2166,-0.214,-0.2203,-0.2176,-0.2221,-0.2197,-0.2201,-0.2201,-0.2143,-0.2102,-0.2048,-0.2112,-0.1877,-0.1867,-0.2119,-0.2054,-0.2056,-0.2057,-0.1669,-0.1665,-0.1662,-0.1659,0,-0.1952,-0.1955,-0.1964,-0.1963,-0.1961,-0.1956,-0.1977,-0.1954,-0.2041,-0.2034,-0.2065,-0.2055,-0.206,-0.1949,-0.1906,-0.1859,-0.1877,-0.1809,-0.2064,-0.1756,-0.176,-0.1697,-0.1711,-0.163,-0.1632,-0.1635,-0.1636,-0.1637,-0.1829,-0.1782,-0.1774,-0.1755,-0.1757,-0.1766,-0.1734,-0.1776,-0.177,-0.1796,-0.1887,-0.1857,-0.1865,-0.1723,-0.1642,-0.1582,-0.1713,-0.163,-0.164,-0.1653,-0.1639,-0.1643,-0.1487,-0.1489,-0.1491,-0.1493,-0.1494,0,-0.1652,-0.1607,-0.157,-0.1557,-0.152,-0.1596,-0.1606,-0.1575,-0.1571,-0.1618,-0.1637,-0.1495,-0.1433,-0.144,-0.1303,-0.1284,-0.1264,-0.123,-0.1195,-0.1226,-0.1253,-0.1218,-0.0955,-0.0953,-0.0951,-0.095,0,0,-0.1545,-0.1429,-0.1411,-0.133,-0.1335,-0.1286,-0.1286,-0.1282,-0.1298,-0.1262,-0.1246,-0.1364,-0.1403,-0.1173,-0.1126,-0.1013,-0.1106,-0.0967,-0.1403,-0.1393,-0.1418,-0.1491,-0.1473,0,0,0,0,0]},{"header":{"parameterUnit":"m.s-1","parameterCategory":2,"la1":30.2991,"la2":30.254,"lo1":-89.0895,"lo2":-89.0444,"dy":0.0017,"dx":0.0017,"nx":28,"ny":28,"refTime":"2024-03-29T03:00:00:Z","depth":"2","parameterNumber":3,"parameterNumberName":"V-component_of_CURRENTS"},"data":[0,0,0,0,0,0,0,0,0,0,0,0,0,0,0,0,0,0,0,0,0,0,0,0,0,0,0,0,0,0,0,0,0,0,0,0,0,0,0,0,0,0,0,0,0,0,0,0,0,0,0,0,0,0,0,0,0,0,0.009,0.0091,0,0.0185,0.0186,0.0186,0.0218,0.0218,0.0218,0.0218,0.0199,0.0198,0.0197,0,0,0,0,0,0,0,0,0,0,0,0,0,-0.008,-0.0078,0.009,0.0091,0.0093,0.0185,0.0186,0.0186,0.0218,0.0218,0.0218,0.0219,0.0199,0.0198,0.0197,0,0,0,0,0,0,0,0,0,0,0,0,0,-0.0004,-0.0077,0.0089,0.0124,0.0129,0.0185,0.0186,0.0187,0.0218,0.0218,0.0218,0.0219,0.0199,0.0198,0.0197,0.0187,0,0,0.0194,0.0194,0,0,0,0,0,0,0,0,-0.0008,0.0002,0.0118,0.0122,0.0127,0.0195,0.0119,0.0183,0.0218,0.0178,0.0218,0.0219,0.0191,0.019,0.0201,0.0186,0.0185,0.0194,0.0193,0.0193,0.0193,0,0,0,0,0,0,0,-0.0014,-0.0002,0.0121,0.012,0.0126,0.0131,0.0141,0.0131,0.0175,0.0181,0.0185,0.0205,0.0192,0.0202,0.02,0.0184,0.0194,0.0193,0.0193,0.0192,0.0125,0.0124,0,0,0,0,0,0,-0.0012,-0.0007,0.0118,0.0125,0.0066,0.0134,0.0145,0.0168,0.0178,0.0182,0.0205,0.0207,0.0203,0.0201,0.02,0.0163,0.0193,0.0192,0.0192,0.0126,0.0125,0.0124,0,0,0,0,0,0,-0.0016,-0.0002,0.0115,0.0065,0.0081,0.0137,0.0162,0.017,0.018,0.0198,0.0199,0.0207,0.0203,0.0201,0.0179,0.0163,0.0192,0.0191,0.0128,0.0126,0.0124,0.0105,0,0,0,0,0,0,-0.0021,-0.0004,-0.0001,0.0066,0.0085,0.0133,0.0163,0.0172,0.0195,0.0197,0.02,0.0199,0.0203,0.018,0.0178,0.0163,0.019,0.0129,0.0127,0.0125,0.0107,0.0103,0.0099,0,0,0,0,0,-0.0028,-0.0019,-0.0001,0.0014,0.0092,0.0133,0.0141,0.0177,0.0195,0.0188,0.0191,0.0199,0.0164,0.0179,0.0176,0.016,0.013,0.0127,0.0125,0.0109,0.0104,0.01,0,0,0,0,0,0,-0.0088,-0.0013,0.0008,0.004,0.0076,0.014,0.0144,0.0173,0.0174,0.0173,0.0185,0.0183,0.0158,0.0157,0.0172,0.0132,0.0148,0.0144,0.0136,0.0132,0.0128,0.0138,0.0189,0,0,0,0,0,-0.0099,-0.0078,-0.0008,0.0012,0.003,0.0084,0.0103,0.0131,0.0153,0.0156,0.0163,0.0159,0.0145,0.0137,0.0126,0.0104,0.0134,0.009,0.0086,0.0083,0.0088,0.0107,0.0106,0.0115,0.0115,0.0115,0,0,-0.0114,-0.0072,-0.0059,-0.0001,0.0031,0.0037,0.0094,0.0121,0.0117,0.015,0.0132,0.0143,0.0135,0.0112,0.01,0.011,0.01,0.008,0.0077,0.0084,0.0104,0.0104,0.0103,0.0113,0.0113,0.0114,0,0,-0.0145,-0.01,-0.01,-0.0076,-0.0027,0.0003,0.0008,0.0065,0.0077,0.0076,0.0092,0.01,0.008,0.0082,0.0077,0.0042,0.0077,0.0029,0.002,0.0038,0.0038,0.0038,0.0099,0.0105,0.0029,0.0029,0.0029,0,-0.0173,-0.0159,-0.0097,-0.0097,-0.0086,-0.002,-0.003,-0.0009,0.0029,0.004,0.006,0.0068,0.0068,0.0051,0.0043,0.0035,0.0064,0.0042,0.0035,0.0036,0.0037,0.0099,0.0106,0.0027,0.0028,0.0028,0.0028,0,-0.0203,-0.0203,-0.0201,-0.0185,-0.0167,-0.0163,-0.0117,-0.0108,-0.0075,-0.0037,-0.0026,-0.0,0.0012,0.001,0.0017,0.0015,0.0042,0.003,0.0054,0.0035,0.0101,0.0109,0.0026,0.0026,0.0026,0.0027,0,0,-0.0246,-0.023,-0.0234,-0.025,-0.0214,-0.0203,-0.021,-0.0187,-0.0185,-0.013,-0.0124,-0.0101,-0.0044,-0.0046,-0.0023,0.0001,0.0045,0.0019,0.002,0.0093,0.0118,0.0145,0.0157,0.003,0.003,0.003,0.0172,0,-0.03,-0.0341,-0.0303,-0.0348,-0.037,-0.0313,-0.0321,-0.0287,-0.025,-0.023,-0.016,-0.0151,-0.0081,-0.0073,-0.0029,0.0011,0.006,0.001,0.0114,0.0119,0.0155,0.0164,0.0132,0.0255,0.018,0.0181,0.0182,0,-0.035,-0.0376,-0.0428,-0.0439,-0.0437,-0.0438,-0.0429,-0.0422,-0.0367,-0.0331,-0.0268,-0.0222,-0.0159,-0.0117,0.0012,-0.0023,0.0053,0.0102,0.0108,0.0145,0.0158,0.0255,0.0272,0.0195,0.0194,0.0193,0.0192,0,-0.0438,-0.0463,-0.0515,-0.0519,-0.0513,-0.0509,-0.0491,-0.0443,-0.0438,-0.0389,-0.0367,-0.028,-0.0223,-0.0132,0.0009,-0.0,0.0148,0.0141,0.0254,0.0258,0.0258,0.0261,0.023,0.0229,0.0229,0.0229,0.0228,0,-0.0521,-0.056,-0.0553,-0.0585,-0.0626,-0.0572,-0.0587,-0.0558,-0.051,-0.0493,-0.0407,-0.0371,-0.0226,-0.0122,-0.0011,0.0167,0.0149,0.0268,0.0291,0.0252,0.0253,0.021,0.0206,0.0234,0.0233,0.0232,0.0231,0,-0.0609,-0.061,-0.0672,-0.0676,-0.0671,-0.0692,-0.0654,-0.0652,-0.0588,-0.0567,-0.0556,-0.0426,-0.0273,-0.012,0.0042,0.0161,0.029,0.0354,0.0326,0.0342,0.0401,0.0394,0.0496,0.0498,0.0499,0.0501,0.0502,0,-0.066,-0.0703,-0.0747,-0.0771,-0.0766,-0.0773,-0.0764,-0.0707,-0.0687,-0.0592,-0.0578,-0.0438,-0.032,-0.004,0.0152,0.0364,0.0354,0.0464,0.0433,0.0414,0.0426,0.0416,0.0407,0.0446,0.0446,0.0447,0.0447,0,-0.0756,-0.0765,-0.0806,-0.0861,-0.0867,-0.0886,-0.0854,-0.086,-0.0767,-0.0727,-0.0624,-0.0535,-0.0244,-0.0012,0.0268,0.0376,0.0421,0.0483,0.0462,0.037,0.0374,0.0383,0.0375,0.0452,0.0451,0.0451,0.0451,0.0451,-0.0808,-0.0851,-0.0888,-0.0932,-0.0951,-0.0957,-0.0962,-0.0913,-0.088,-0.0777,-0.067,-0.0492,-0.0249,0.0141,0.0337,0.0512,0.0501,0.0544,0.0539,0.0535,0.049,0.0495,0.0591,0.0591,0.0592,0.0592,0.0592,0,-0.0862,-0.0891,-0.0944,-0.0985,-0.1008,-0.1003,-0.0988,-0.0962,-0.0915,-0.0787,-0.0667,-0.0401,-0.0117,0.0127,0.0419,0.0596,0.0571,0.0613,0.0548,0.0542,0.0537,0.049,0.0593,0.0594,0.0594,0.0595,0,0,-0.0886,-0.0935,-0.0953,-0.1005,-0.1028,-0.104,-0.1035,-0.0992,-0.0898,-0.0773,-0.0629,-0.042,-0.011,0.0101,0.0319,0.0471,0.0458,0.0476,0.0453,0.0345,0.0338,0.0474,0.0392,0,0,0,0,0]}],[{"header":{"parameterUnit":"m.s-1","parameterCategory":2,"la1":30.2991,"la2":30.254,"lo1":-89.0895,"lo2":-89.0444,"dy":0.0017,"dx":0.0017,"nx":28,"ny":28,"refTime":"2024-03-29T03:00:00:Z","depth":"4","parameterNumber":2,"parameterNumberName":"U-component_of_CURRENTS"},"data":[0,0,0,0,0,0,0,0,0,0,0,0,0,0,0,0,0,0,0,0,0,0,0,0,0,0,0,0,0,0,0,0,0,0,0,0,0,0,0,0,0,0,0,0,0,0,0,0,0,0,0,0,0,0,0,0,0,0,-0.1008,-0.1009,0,-0.1084,-0.1085,-0.1085,-0.1124,-0.1124,-0.1124,-0.1124,-0.1209,-0.1211,-0.1214,0,0,0,0,0,0,0,0,0,0,0,0,0,-0.0937,-0.0938,-0.1008,-0.1009,-0.101,-0.1084,-0.1085,-0.1085,-0.1123,-0.1124,-0.1124,-0.1124,-0.1209,-0.1211,-0.1214,0,0,0,0,0,0,0,0,0,0,0,0,0,-0.0985,-0.0938,-0.1008,-0.1039,-0.1043,-0.1083,-0.1085,-0.1086,-0.1123,-0.1124,-0.1124,-0.1124,-0.1208,-0.1211,-0.1214,-0.123,0,0,-0.1224,-0.1225,0,0,0,0,0,0,0,0,-0.0982,-0.0987,-0.1033,-0.1037,-0.1041,-0.1096,-0.1091,-0.1135,-0.1123,-0.1091,-0.1124,-0.1124,-0.1173,-0.1179,-0.1191,-0.1234,-0.1237,-0.1224,-0.1226,-0.1228,-0.1228,0,0,0,0,0,0,0,-0.0978,-0.0984,-0.1037,-0.1035,-0.1039,-0.1063,-0.107,-0.11,-0.1129,-0.1094,-0.1098,-0.1108,-0.1175,-0.1188,-0.1193,-0.1239,-0.1224,-0.1227,-0.1229,-0.123,-0.1346,-0.1347,0,0,0,0,0,0,-0.0969,-0.0981,-0.1035,-0.1039,-0.1013,-0.1064,-0.1071,-0.1077,-0.1129,-0.1137,-0.1108,-0.1109,-0.1182,-0.1189,-0.1196,-0.1274,-0.1228,-0.1231,-0.1232,-0.1345,-0.1346,-0.1348,0,0,0,0,0,0,-0.0967,-0.0973,-0.1032,-0.1013,-0.1022,-0.1065,-0.1071,-0.1078,-0.1112,-0.1139,-0.1148,-0.1136,-0.1182,-0.1192,-0.1242,-0.1276,-0.1232,-0.1235,-0.1344,-0.1346,-0.1347,-0.1394,0,0,0,0,0,0,-0.0965,-0.0972,-0.0983,-0.1012,-0.1023,-0.1061,-0.1071,-0.108,-0.1117,-0.112,-0.1166,-0.1173,-0.1183,-0.1237,-0.1245,-0.1279,-0.1237,-0.1342,-0.1345,-0.1347,-0.1391,-0.1397,-0.1402,0,0,0,0,0,-0.0962,-0.0972,-0.0983,-0.099,-0.1033,-0.1061,-0.1069,-0.11,-0.1118,-0.1131,-0.1169,-0.1172,-0.1257,-0.1241,-0.125,-0.1286,-0.1341,-0.1344,-0.1346,-0.1389,-0.1396,-0.1402,0,0,0,0,0,0,-0.0951,-0.0978,-0.099,-0.101,-0.1037,-0.1068,-0.1092,-0.1112,-0.1153,-0.1163,-0.1191,-0.1201,-0.1256,-0.1263,-0.1246,-0.1324,-0.1298,-0.1303,-0.1327,-0.1334,-0.134,-0.133,-0.124,0,0,0,0,0,-0.0952,-0.0968,-0.0995,-0.1015,-0.103,-0.1066,-0.1087,-0.1103,-0.1139,-0.1158,-0.1195,-0.1233,-0.127,-0.1296,-0.1323,-0.1371,-0.1371,-0.1397,-0.1403,-0.1408,-0.1406,-0.144,-0.1449,-0.1356,-0.1356,-0.1356,0,0,-0.0956,-0.0974,-0.0985,-0.1015,-0.1042,-0.1073,-0.1079,-0.1111,-0.1146,-0.1161,-0.123,-0.1255,-0.1286,-0.1338,-0.1363,-0.1352,-0.1435,-0.1411,-0.1415,-0.141,-0.1444,-0.1453,-0.1461,-0.1358,-0.1358,-0.1357,0,0,-0.0968,-0.0986,-0.1004,-0.1022,-0.1058,-0.1087,-0.1101,-0.1143,-0.117,-0.1232,-0.125,-0.1296,-0.1362,-0.1386,-0.1408,-0.1462,-0.1461,-0.1473,-0.1502,-0.1537,-0.1544,-0.1551,-0.1562,-0.1569,-0.148,-0.148,-0.148,0,-0.0975,-0.0997,-0.1015,-0.1033,-0.1058,-0.1098,-0.1126,-0.1163,-0.1219,-0.1245,-0.126,-0.136,-0.1386,-0.1447,-0.1465,-0.1476,-0.1485,-0.1476,-0.1544,-0.1551,-0.1557,-0.1566,-0.1574,-0.1482,-0.1482,-0.1482,-0.1482,0,-0.0989,-0.1017,-0.1031,-0.1074,-0.11,-0.1129,-0.1174,-0.1215,-0.1267,-0.1304,-0.1377,-0.1417,-0.1474,-0.1493,-0.1502,-0.156,-0.1548,-0.1545,-0.1526,-0.1569,-0.1576,-0.1583,-0.1486,-0.1485,-0.1484,-0.1484,0,0,-0.098,-0.1034,-0.1039,-0.1061,-0.112,-0.1139,-0.1206,-0.1269,-0.1323,-0.138,-0.1449,-0.1511,-0.1531,-0.1555,-0.1572,-0.1603,-0.1657,-0.1596,-0.1597,-0.1605,-0.1722,-0.1602,-0.1598,-0.1671,-0.1673,-0.1674,-0.1708,0,-0.0994,-0.1032,-0.106,-0.1112,-0.1138,-0.1186,-0.125,-0.1305,-0.1375,-0.1452,-0.1494,-0.1569,-0.1557,-0.1598,-0.1626,-0.1656,-0.1679,-0.1647,-0.1679,-0.168,-0.1567,-0.1603,-0.1679,-0.1713,-0.1715,-0.1716,-0.1717,0,-0.0994,-0.1021,-0.1071,-0.1132,-0.1149,-0.1192,-0.1286,-0.1342,-0.1446,-0.1502,-0.157,-0.1616,-0.1677,-0.1665,-0.1724,-0.1707,-0.1714,-0.1727,-0.1728,-0.1602,-0.1573,-0.1661,-0.1729,-0.1728,-0.1727,-0.1726,-0.1726,0,-0.0966,-0.1024,-0.1069,-0.1085,-0.1169,-0.1201,-0.1253,-0.1355,-0.1421,-0.1533,-0.1607,-0.1672,-0.1732,-0.1752,-0.1773,-0.1763,-0.1826,-0.1817,-0.1709,-0.17,-0.1778,-0.177,-0.185,-0.1849,-0.1849,-0.1849,-0.1849,0,-0.0958,-0.0988,-0.1057,-0.1074,-0.1127,-0.1183,-0.1272,-0.133,-0.1455,-0.1541,-0.1625,-0.1699,-0.1762,-0.1806,-0.18,-0.1767,-0.1847,-0.1711,-0.1703,-0.1796,-0.179,-0.1782,-0.1774,-0.1851,-0.185,-0.185,-0.185,0,-0.0919,-0.0974,-0.1012,-0.1089,-0.1116,-0.1143,-0.1265,-0.1341,-0.1455,-0.1573,-0.1616,-0.1741,-0.1787,-0.1821,-0.1863,-0.1798,-0.1783,-0.1749,-0.1839,-0.1836,-0.1627,-0.1621,-0.1633,-0.163,-0.1626,-0.1623,-0.1621,0,-0.0903,-0.0925,-0.0999,-0.1027,-0.1063,-0.1131,-0.1203,-0.1324,-0.1408,-0.1582,-0.1632,-0.1731,-0.1792,-0.1746,-0.1781,-0.1749,-0.1723,-0.1699,-0.1659,-0.1615,-0.1606,-0.1606,-0.1604,-0.1616,-0.1615,-0.1614,-0.1613,0,-0.0858,-0.0896,-0.0929,-0.0983,-0.1043,-0.1118,-0.1212,-0.1266,-0.1421,-0.1544,-0.161,-0.1631,-0.1678,-0.1678,-0.1661,-0.1637,-0.1706,-0.1664,-0.167,-0.1632,-0.1594,-0.1588,-0.1591,-0.1602,-0.1603,-0.1605,-0.1605,0,-0.0822,-0.0831,-0.0884,-0.0921,-0.1005,-0.1072,-0.1129,-0.1223,-0.131,-0.1492,-0.1504,-0.1591,-0.1675,-0.1621,-0.1608,-0.157,-0.1541,-0.1479,-0.1495,-0.1508,-0.1446,-0.1377,-0.1311,0,0,0,0,0,-0.0778,-0.0788,-0.0822,-0.0868,-0.0955,-0.0999,-0.1136,-0.121,-0.1356,-0.1369,-0.1431,-0.1463,-0.1456,-0.1494,-0.1424,-0.1539,-0.154,-0.1451,-0.1476,-0.1538,-0.1551,-0.1487,0,0,0,0,0,0,-0.0754,-0.0779,-0.0792,-0.0819,-0.085,-0.0942,-0.1023,-0.1121,-0.1133,-0.127,-0.1272,-0.1361,-0.137,-0.1468,-0.1389,-0.1397,-0.1379,-0.1498,-0.1494,-0.1531,-0.1543,-0.1553,-0.1492,0,0,0,0,0]},{"header":{"parameterUnit":"m.s-1","parameterCategory":2,"la1":30.2991,"la2":30.254,"lo1":-89.0895,"lo2":-89.0444,"dy":0.0017,"dx":0.0017,"nx":28,"ny":28,"refTime":"2024-03-29T03:00:00:Z","depth":"4","parameterNumber":3,"parameterNumberName":"V-component_of_CURRENTS"},"data":[0,0,0,0,0,0,0,0,0,0,0,0,0,0,0,0,0,0,0,0,0,0,0,0,0,0,0,0,0,0,0,0,0,0,0,0,0,0,0,0,0,0,0,0,0,0,0,0,0,0,0,0,0,0,0,0,0,0,-0.0164,-0.0164,0,-0.0144,-0.0144,-0.0144,-0.013,-0.013,-0.013,-0.013,-0.0136,-0.0136,-0.0136,0,0,0,0,0,0,0,0,0,0,0,0,0,-0.0161,-0.0161,-0.0164,-0.0164,-0.0163,-0.0144,-0.0144,-0.0144,-0.013,-0.013,-0.013,-0.013,-0.0136,-0.0136,-0.0136,0,0,0,0,0,0,0,0,0,0,0,0,0,-0.0154,-0.0161,-0.0164,-0.0155,-0.0153,-0.0144,-0.0144,-0.0144,-0.013,-0.013,-0.013,-0.013,-0.0136,-0.0136,-0.0136,-0.0141,0,0,-0.0137,-0.0138,0,0,0,0,0,0,0,0,-0.0154,-0.0154,-0.0156,-0.0155,-0.0154,-0.014,-0.0145,-0.0144,-0.013,-0.0139,-0.013,-0.013,-0.014,-0.014,-0.0136,-0.0141,-0.0142,-0.0138,-0.0138,-0.0138,-0.0138,0,0,0,0,0,0,0,-0.0155,-0.0154,-0.0156,-0.0156,-0.0155,-0.0142,-0.0141,-0.0145,-0.0141,-0.0138,-0.0137,-0.0135,-0.0139,-0.0135,-0.0136,-0.0142,-0.0138,-0.0138,-0.0138,-0.0138,-0.0161,-0.0161,0,0,0,0,0,0,-0.0159,-0.0155,-0.0157,-0.0155,-0.0154,-0.0142,-0.0141,-0.0144,-0.014,-0.0139,-0.0136,-0.0135,-0.0135,-0.0135,-0.0136,-0.0161,-0.0138,-0.0138,-0.0138,-0.0161,-0.0161,-0.0161,0,0,0,0,0,0,-0.0159,-0.016,-0.0157,-0.0154,-0.0153,-0.0142,-0.0146,-0.0144,-0.0138,-0.0138,-0.0137,-0.0132,-0.0135,-0.0136,-0.014,-0.016,-0.0138,-0.0139,-0.016,-0.0161,-0.0161,-0.0198,0,0,0,0,0,0,-0.0159,-0.016,-0.0164,-0.0155,-0.0154,-0.0156,-0.0146,-0.0144,-0.0138,-0.0137,-0.0135,-0.0135,-0.0135,-0.0139,-0.014,-0.016,-0.0139,-0.016,-0.016,-0.0161,-0.0196,-0.02,-0.0203,0,0,0,0,0,-0.016,-0.0167,-0.0164,-0.0164,-0.016,-0.0156,-0.0154,-0.0145,-0.0138,-0.0139,-0.0135,-0.0135,-0.0145,-0.014,-0.0141,-0.0162,-0.0159,-0.016,-0.0161,-0.0195,-0.0199,-0.0203,0,0,0,0,0,0,-0.0169,-0.0166,-0.0163,-0.017,-0.0164,-0.0154,-0.0153,-0.0145,-0.0142,-0.014,-0.0137,-0.0138,-0.0151,-0.0147,-0.0141,-0.0169,-0.0153,-0.0154,-0.0179,-0.0183,-0.0186,-0.0196,-0.0139,0,0,0,0,0,-0.0173,-0.0179,-0.0171,-0.0177,-0.0174,-0.0162,-0.0159,-0.0152,-0.0148,-0.0146,-0.0146,-0.0147,-0.0156,-0.016,-0.0165,-0.0177,-0.0138,-0.0191,-0.0194,-0.0197,-0.0206,-0.0159,-0.0159,-0.0164,-0.0164,-0.0164,0,0,-0.0179,-0.0178,-0.0181,-0.018,-0.0173,-0.0184,-0.016,-0.0156,-0.017,-0.0148,-0.0166,-0.0159,-0.0161,-0.0178,-0.0184,-0.0177,-0.0169,-0.0198,-0.0201,-0.0208,-0.016,-0.0159,-0.0159,-0.0165,-0.0165,-0.0165,0,0,-0.0196,-0.0192,-0.0202,-0.0202,-0.0195,-0.0194,-0.0194,-0.0185,-0.0183,-0.0192,-0.0185,-0.0186,-0.0196,-0.0204,-0.0209,-0.0231,-0.0188,-0.0233,-0.0261,-0.0216,-0.0215,-0.0213,-0.0136,-0.0128,-0.0235,-0.0235,-0.0235,0,-0.0203,-0.0222,-0.0203,-0.0215,-0.0226,-0.0203,-0.0224,-0.022,-0.0216,-0.0217,-0.0203,-0.021,-0.0212,-0.0234,-0.0247,-0.024,-0.0191,-0.0247,-0.0219,-0.0217,-0.0215,-0.0137,-0.0127,-0.0237,-0.0237,-0.0237,-0.0237,0,-0.0226,-0.0247,-0.0252,-0.0269,-0.0274,-0.0287,-0.0283,-0.0286,-0.0279,-0.0272,-0.0276,-0.0265,-0.0268,-0.0271,-0.0271,-0.027,-0.0229,-0.0226,-0.0208,-0.0217,-0.0133,-0.0123,-0.024,-0.0239,-0.0239,-0.0238,0,0,-0.0237,-0.0266,-0.0271,-0.0295,-0.0307,-0.0315,-0.0339,-0.0351,-0.036,-0.0343,-0.0344,-0.0359,-0.0331,-0.0335,-0.0323,-0.0292,-0.0233,-0.0259,-0.0255,-0.0181,-0.0099,-0.0101,-0.0089,-0.0218,-0.0217,-0.0217,-0.0036,0,-0.0268,-0.0315,-0.0319,-0.0371,-0.0399,-0.0394,-0.042,-0.0422,-0.0412,-0.0402,-0.0372,-0.0366,-0.0361,-0.0352,-0.0325,-0.0257,-0.0211,-0.028,-0.0104,-0.0098,-0.0099,-0.008,-0.0214,-0.0027,-0.0025,-0.0023,-0.0022,0,-0.0291,-0.0329,-0.0389,-0.0437,-0.0445,-0.0471,-0.0501,-0.0514,-0.0492,-0.0474,-0.045,-0.041,-0.0373,-0.0356,-0.024,-0.0279,-0.0199,-0.0138,-0.0129,-0.0117,-0.0083,-0.0023,-0.0001,-0.0003,-0.0004,-0.0006,-0.0007,0,-0.032,-0.0375,-0.0434,-0.0451,-0.0498,-0.0522,-0.0539,-0.0539,-0.0542,-0.0506,-0.0479,-0.0428,-0.0376,-0.029,-0.0176,-0.0195,-0.0019,-0.0024,0.0055,0.0059,0.0024,0.0021,0.0065,0.0065,0.0065,0.0064,0.0064,0,-0.0358,-0.0402,-0.0454,-0.0488,-0.0547,-0.0557,-0.0595,-0.0597,-0.0579,-0.0567,-0.0513,-0.0471,-0.0355,-0.0245,-0.0155,-0.001,0.0005,0.0058,0.0097,0.0009,0.0001,0.0035,0.0029,0.0071,0.0069,0.0068,0.0067,0,-0.0383,-0.0418,-0.0487,-0.0549,-0.0565,-0.0604,-0.063,-0.0646,-0.0621,-0.0594,-0.0573,-0.0472,-0.033,-0.0204,-0.0031,0.0029,0.0158,0.0207,0.0135,0.0166,0.0209,0.0199,0.0321,0.0322,0.0323,0.0324,0.0325,0,-0.0403,-0.0445,-0.0528,-0.0565,-0.0597,-0.0645,-0.0673,-0.0671,-0.0669,-0.0593,-0.0568,-0.0428,-0.035,-0.009,0.0024,0.0221,0.0226,0.031,0.0217,0.0206,0.0232,0.022,0.0209,0.0327,0.0327,0.0327,0.0328,0,-0.0445,-0.0475,-0.0531,-0.0607,-0.0653,-0.0697,-0.0722,-0.0715,-0.0689,-0.0662,-0.0543,-0.0414,-0.0245,-0.0079,0.0082,0.0207,0.0257,0.0321,0.0319,0.0232,0.0214,0.0236,0.0224,0.0331,0.0331,0.033,0.033,0,-0.047,-0.0513,-0.058,-0.064,-0.0698,-0.0728,-0.0739,-0.0713,-0.0699,-0.0605,-0.056,-0.039,-0.0284,-0.0082,0.0059,0.0187,0.02,0.0222,0.0225,0.0222,0.0112,0.007,0.0184,0,0,0,0,0,-0.0494,-0.0538,-0.0602,-0.0669,-0.0722,-0.0751,-0.0764,-0.0759,-0.0717,-0.0639,-0.0598,-0.0445,-0.0219,-0.0117,0.0012,0.0056,0.0208,0.0209,0.0231,0.0351,0.0347,0.023,0,0,0,0,0,0,-0.0514,-0.0576,-0.0606,-0.0675,-0.0718,-0.077,-0.078,-0.0752,-0.0697,-0.0634,-0.0512,-0.0431,-0.0214,-0.0298,0.0007,0.0048,0.0076,0.0318,0.0321,0.0354,0.035,0.0346,0.0225,0,0,0,0,0]}]]